(203269) = 2001 QP280

Discovered at Socorro on 2001-08-19 by LINEAR.

Orbit

Orbit type: Mars-crosser

Note: WebGL enabled browser required.

epoch2024-03-31.0
epoch JD2460400.5
perihelion date2021-08-11.00655
perihelion JD2459437.50655
argument of perihelion (°)266.48473
ascending node (°)99.74842
inclination (°)5.99655
eccentricity0.2538423
perihelion distance (AU)1.6564775
Tisserand w.r.t. Jupiter3.6
ΔV w.r.t. Earth (km/sec)8.1
semimajor axis (AU)2.2200100
mean anomaly (°)286.94244
mean daily motion (°/day)0.29796930
aphelion distance (AU)2.784
period (years)3.31
P-vector [x]0.98870566
P-vector [y]0.14024374
P-vector [z]-0.05284708
Q-vector [x]-0.10890516
Q-vector [y]0.91455402
Q-vector [z]0.38952614
absolute magnitude17.19
phase slope0.15
uncertainty0
referenceMPEC 2024-C181
observations used509
oppositions14
arc length (days)7910
first opposition used2001
last opposition used2023
residual rms (arc-secs)0.68
perturbers coarse indicatorM-v
perturbers precise indicator003Ek
first observation date used2001-08-19.0
last observation date used2023-04-16.0
computer nameMPCLINUX
JD of orbit computation2456847.723455
perihelion JD uncertainty (days)2.7301E-05
argument of perihelion uncertainty (°)4.0565E-05
ascending node uncertainty (°)3.9551E-05
inclination uncertainty (°)3.8242E-06
eccentricity uncertainty 4.0002E-08
perihelion distance uncertainty (AU)8.9005E-08
Minimum Orbit Intersection Distances (in AU)
for orbit epoch: 2460400.5, reference: E2024-CI1
Mercury1.29557
Venus0.93179
Earth0.66848
Mars0.28411
Jupiter2.68468
Saturn6.65238
Uranus15.6951
Neptune27.7876

Observations

555 total observations over interval: 2001 08 19.35365 – 2023 04 16.295504
These data are available for download (format description).

Date (UT) J2000 RA J2000 Dec Magn Location Ref
2001 08 19.35365 00 27 39.60 -09 43 57.2 19.1   704 – Lincoln Laboratory ETS, New Mexico MPS 34937
2001 08 19.36642 00 27 39.81 -09 44 02.2 18.7   704 – Lincoln Laboratory ETS, New Mexico MPS 34937
2001 08 19.37912 00 27 39.96 -09 44 07.6 19.1   704 – Lincoln Laboratory ETS, New Mexico MPS 34937
2001 08 19.39174 00 27 40.21 -09 44 13.8 18.9   704 – Lincoln Laboratory ETS, New Mexico MPS 34937
2001 08 20.50181 00 27 59.11 -09 51 45.9 20.0   608 – Haleakala-AMOS MPS 34937
2001 08 20.51245 00 27 59.21 -09 51 50.2 19.9   608 – Haleakala-AMOS MPS 34937
2001 08 20.52333 00 27 59.32 -09 51 54.7 19.9   608 – Haleakala-AMOS MPS 34937
2001 09 09.33115 00 26 06.23 -12 30 18.7 20.2   644 – Palomar Mountain/NEAT MPS 34937
2001 09 09.35242 00 26 05.61 -12 30 29.4 19.4   644 – Palomar Mountain/NEAT MPS 34937
2001 09 09.37376 00 26 04.97 -12 30 39.9 19.8   644 – Palomar Mountain/NEAT MPS 34937
2001 09 11.30377 00 25 12.54 -12 46 21.5 17.3 R 699 – Lowell Observatory-LONEOS MPS 34937
2001 09 11.32722 00 25 11.81 -12 46 33.0   699 – Lowell Observatory-LONEOS MPS 34937
2001 09 11.35076 00 25 11.00 -12 46 44.1   699 – Lowell Observatory-LONEOS MPS 34937
2001 09 11.37432 00 25 10.22 -12 46 55.9   699 – Lowell Observatory-LONEOS MPS 34937
2001 09 12.33842 00 24 41.75 -12 54 36.7 17.8   704 – Lincoln Laboratory ETS, New Mexico MPS 37909
2001 09 12.35350 00 24 41.23 -12 54 43.3 17.9   704 – Lincoln Laboratory ETS, New Mexico MPS 37909
2001 09 12.36784 00 24 40.71 -12 54 50.5 18.3   704 – Lincoln Laboratory ETS, New Mexico MPS 37909
2001 09 12.38243 00 24 40.22 -12 54 57.4 18.0   704 – Lincoln Laboratory ETS, New Mexico MPS 37909
2001 09 12.39703 00 24 39.70 -12 55 04.2 17.9   704 – Lincoln Laboratory ETS, New Mexico MPS 37909
2001 09 25.19058 00 16 42.29 -14 19 52.7 17.9   704 – Lincoln Laboratory ETS, New Mexico MPS 49407
2001 09 25.20530 00 16 41.60 -14 19 57.3 18.0   704 – Lincoln Laboratory ETS, New Mexico MPS 49407
2001 09 25.22065 00 16 40.92 -14 20 02.4 18.1   704 – Lincoln Laboratory ETS, New Mexico MPS 49407
2001 09 25.23546 00 16 40.27 -14 20 06.2 18.3   704 – Lincoln Laboratory ETS, New Mexico MPS 49407
2001 09 25.25076 00 16 39.52 -14 20 12.2 18.1   704 – Lincoln Laboratory ETS, New Mexico MPS 49407
2001 10 11.26695 00 06 38.86 -14 51 14.9 18.3   704 – Lincoln Laboratory ETS, New Mexico MPS 37909
2001 10 11.28285 00 06 38.27 -14 51 12.9 18.3   704 – Lincoln Laboratory ETS, New Mexico MPS 37909
2001 10 11.29953 00 06 37.68 -14 51 12.0 18.0   704 – Lincoln Laboratory ETS, New Mexico MPS 37909
2001 10 11.31496 00 06 37.18 -14 51 11.7 18.2   704 – Lincoln Laboratory ETS, New Mexico MPS 37909
2001 10 11.33050 00 06 36.62 -14 51 09.4 18.5   704 – Lincoln Laboratory ETS, New Mexico MPS 37909
2001 10 15.22258 00 04 54.45 -14 43 16.6 17.9   644 – Palomar Mountain/NEAT MPS 43743
2001 10 15.23343 00 04 54.15 -14 43 14.7 17.9   644 – Palomar Mountain/NEAT MPS 43743
2001 10 15.24441 00 04 53.86 -14 43 12.8 18.1   644 – Palomar Mountain/NEAT MPS 43743
2001 10 19.19940 00 03 36.86 -14 29 02.4 17.6 R 699 – Lowell Observatory-LONEOS MPS 40359
2001 10 19.22293 00 03 36.43 -14 28 56.5   699 – Lowell Observatory-LONEOS MPS 40359
2001 10 19.24623 00 03 35.90 -14 28 50.2   699 – Lowell Observatory-LONEOS MPS 40359
2001 10 19.26959 00 03 35.47 -14 28 44.4   699 – Lowell Observatory-LONEOS MPS 40359
2001 10 20.16820 00 03 22.64 -14 24 39.2 19.0   704 – Lincoln Laboratory ETS, New Mexico MPS 40359
2001 10 20.16831 00 03 22.65 -14 24 39.2 18.6   704 – Lincoln Laboratory ETS, New Mexico MPS 40359
2001 10 20.18439 00 03 22.38 -14 24 34.9 19.2   704 – Lincoln Laboratory ETS, New Mexico MPS 40359
2001 10 20.18450 00 03 22.39 -14 24 34.5 18.9   704 – Lincoln Laboratory ETS, New Mexico MPS 40359
2001 10 20.20111 00 03 22.06 -14 24 30.0 18.9   704 – Lincoln Laboratory ETS, New Mexico MPS 40359
2001 10 20.20121 00 03 22.10 -14 24 29.1 19.5   704 – Lincoln Laboratory ETS, New Mexico MPS 40359
2001 10 20.21840 00 03 21.78 -14 24 25.0 18.8   704 – Lincoln Laboratory ETS, New Mexico MPS 40359
2001 10 20.23418 00 03 21.49 -14 24 20.6 18.9   704 – Lincoln Laboratory ETS, New Mexico MPS 40359
2001 10 20.23429 00 03 21.49 -14 24 20.2 18.8   704 – Lincoln Laboratory ETS, New Mexico MPS 40359
2001 10 23.16424 00 02 50.77 -14 08 50.1 18.7   644 – Palomar Mountain/NEAT MPS 39298
2001 10 23.18599 00 02 50.52 -14 08 42.6 18.6   644 – Palomar Mountain/NEAT MPS 39298
2001 10 23.20718 00 02 50.29 -14 08 35.3 18.7   644 – Palomar Mountain/NEAT MPS 39298
2001 11 08.21154 00 05 22.10 -11 55 21.0 19.7   644 – Palomar Mountain/NEAT MPS 40359
2001 11 08.22227 00 05 22.33 -11 55 14.1 19.1   644 – Palomar Mountain/NEAT MPS 40359
2001 11 08.23305 00 05 22.59 -11 55 07.5 19.3   644 – Palomar Mountain/NEAT MPS 40359
2001 11 18.29570 00 11 25.79 -09 58 47.3 19.3   608 – Haleakala-AMOS MPS 41905
2001 11 18.30609 00 11 26.25 -09 58 40.6 19.6   608 – Haleakala-AMOS MPS 41905
2001 11 18.31719 00 11 26.71 -09 58 32.4 20.5   608 – Haleakala-AMOS MPS 41905
2005 11 12.499130 09 56 28.673 +14 58 04.93   645 – Apache Point-Sloan Digital Sky Survey MPS 486728
2005 11 12.499960 09 56 28.728 +14 58 05.09   645 – Apache Point-Sloan Digital Sky Survey MPS 486728
2005 11 12.502447 09 56 28.914 +14 58 04.63   645 – Apache Point-Sloan Digital Sky Survey MPS 486728
2006 01 06.450966 10 19 26.517 +15 49 53.57 21.12 V 645 – Apache Point-Sloan Digital Sky Survey MPS 390255
2006 01 06.454438 10 19 26.431 +15 49 54.73 22.00   645 – Apache Point-Sloan Digital Sky Survey MPS 390255
2006 01 23.30108 10 09 02.94 +17 44 35.0 20.5 V 691 – Steward Observatory, Kitt Peak-Spacewatch MPS 161639
2006 01 23.32142 10 09 01.87 +17 44 44.4 20.5 V 691 – Steward Observatory, Kitt Peak-Spacewatch MPS 161639
2006 01 23.33883 10 09 00.96 +17 44 52.3 20.6 V 691 – Steward Observatory, Kitt Peak-Spacewatch MPS 161639
2006 02 01.27737 10 00 36.28 +18 54 39.1 20.3 V 691 – Steward Observatory, Kitt Peak-Spacewatch MPS 161639
2006 02 01.29763 10 00 34.99 +18 54 48.6 20.3 V 691 – Steward Observatory, Kitt Peak-Spacewatch MPS 161639
2006 02 01.31498 10 00 33.90 +18 54 56.7 20.3 V 691 – Steward Observatory, Kitt Peak-Spacewatch MPS 161639
2007 04 28.38072 15 40 39.85 -11 48 41.7 20.8 V 691 – Steward Observatory, Kitt Peak-Spacewatch MPS 207982
2007 04 28.39837 15 40 38.81 -11 48 38.0 21.0 V 691 – Steward Observatory, Kitt Peak-Spacewatch MPS 207982
2007 04 28.41602 15 40 37.85 -11 48 34.4 20.8 V 691 – Steward Observatory, Kitt Peak-Spacewatch MPS 207982
2008 12 01.32715 07 36 43.50 +20 24 36.6 19.4   704 – Lincoln Laboratory ETS, New Mexico MPS 267384
2008 12 01.33978 07 36 43.08 +20 24 39.5 19.7   704 – Lincoln Laboratory ETS, New Mexico MPS 267384
2008 12 01.35263 07 36 42.69 +20 24 43.0 19.9   704 – Lincoln Laboratory ETS, New Mexico MPS 267384
2008 12 01.36527 07 36 42.36 +20 24 45.8 20.0   704 – Lincoln Laboratory ETS, New Mexico MPS 267384
2008 12 01.37785 07 36 41.93 +20 24 48.4 20.1   704 – Lincoln Laboratory ETS, New Mexico MPS 267384
2008 12 04.32101 07 35 10.78 +20 37 51.4 20.5 V G96 – Mt. Lemmon Survey MPS 267384
2008 12 04.32866 07 35 10.50 +20 37 53.4 20.5 V G96 – Mt. Lemmon Survey MPS 267384
2008 12 04.33629 07 35 10.24 +20 37 55.7 20.4 V G96 – Mt. Lemmon Survey MPS 267384
2008 12 04.34388 07 35 09.99 +20 37 58.1 20.3 V G96 – Mt. Lemmon Survey MPS 267384
2008 12 21.02396 07 20 38.80 +22 07 14.5 19.5 C 493 – Calar Alto MPS 269188
2008 12 21.03961 07 20 37.71 +22 07 20.1 19.7 C 493 – Calar Alto MPS 269188
2008 12 21.05506 07 20 36.62 +22 07 25.5 19.6 C 493 – Calar Alto MPS 269188
2008 12 21.29556 07 20 20.59 +22 08 50.0 19.7 V 691 – Steward Observatory, Kitt Peak-Spacewatch MPS 269188
2008 12 21.31369 07 20 19.30 +22 08 56.6 19.8 V 691 – Steward Observatory, Kitt Peak-Spacewatch MPS 269188
2008 12 21.33183 07 20 18.03 +22 09 02.9 19.7 V 691 – Steward Observatory, Kitt Peak-Spacewatch MPS 269188
2008 12 21.37893 07 20 14.74 +22 09 19.7 19.6 V 703 – Catalina Sky Survey MPS 269188
2008 12 21.38466 07 20 14.31 +22 09 21.4 19.7 V 703 – Catalina Sky Survey MPS 269188
2008 12 21.39065 07 20 13.92 +22 09 24.1 19.8 V 703 – Catalina Sky Survey MPS 269188
2008 12 21.39644 07 20 13.56 +22 09 26.5 19.9 V 703 – Catalina Sky Survey MPS 269188
